This demonstration page uses our WeatherBlox Daily Observations layout. Learn more.

Left ArrowRight Arrow

34.16533, -84.80231

Hourly Observations for October 2, 2021

Temp ( °F °C ) Dew Point ( °F °C ) Humidity (%) Winds ( mph kmh ) Pressure ( in mb ) Visibility ( mi km ) Precip ( " mm )
12:15 am 00:15 Clear with Mist and Fog 68 20 66 19 94 94 N N/A 30.18 1022 6 10 N/A
12:35 am 00:35 Clear with Mist and Fog 68 20 66 19 94 94 N N/A 30.18 1022 6 10 N/A
12:55 am 00:55 Clear with Mist and Fog 66 19 66 19 100 100 N N/A 30.18 1022 6 10 N/A
1:15 am 01:15 Clear with Mist and Fog 66 19 66 19 100 100 N N/A 30.18 1022 6 10 N/A
1:35 am 01:35 Clear with Mist and Fog 66 19 66 19 100 100 N N/A 30.18 1022 5 8 N/A
1:55 am 01:55 Clear with Mist and Fog 66 19 66 19 100 100 N N/A 30.19 1023 4 6 N/A
2:15 am 02:15 Clear with Mist and Fog 66 19 66 19 100 100 N N/A 30.19 1023 5 8 N/A
2:35 am 02:35 Clear with Mist and Fog 66 19 64 18 94 94 N N/A 30.19 1023 4 6 N/A
2:55 am 02:55 Clear with Mist and Fog 66 19 66 19 100 100 N N/A 30.19 1023 4 6 N/A
3:15 am 03:15 Partly Cloudy with Mist and Fog 66 19 66 19 100 100 N N/A 30.19 1023 4 6 N/A
3:35 am 03:35 Partly Cloudy with Mist and Fog 66 19 66 19 100 100 N N/A 30.19 1023 4 6 N/A
3:55 am 03:55 Mostly Cloudy with Mist and Fog 66 19 66 19 100 100 N N/A 30.19 1023 3 5 N/A
4:15 am 04:15 Cloudy with Mist and Fog 66 19 66 19 100 100 N N/A 30.19 1023 3 5 N/A
4:35 am 04:35 Cloudy with Mist and Fog 66 19 66 19 100 100 N N/A 30.19 1023 3 5 N/A
4:55 am 04:55 Cloudy with Mist and Fog 68 20 68 20 100 100 ESE 5 7 30.19 1022 4 6 N/A
5:15 am 05:15 Cloudy with Mist and Fog 68 20 68 20 100 100 ESE 5 7 30.19 1022 3 5 N/A
5:35 am 05:35 Cloudy with Mist and Fog 70 21 68 20 94 94 E 5 7 30.19 1022 4 6 N/A
5:55 am 05:55 Cloudy with Mist and Fog 68 20 68 20 100 100 N N/A 30.20 1023 4 6 N/A
6:15 am 06:15 Cloudy with Mist and Fog 68 20 68 20 100 100 N N/A 30.20 1023 4 6 N/A
6:35 am 06:35 Cloudy with Mist and Fog 68 20 68 20 100 100 N N/A 30.21 1023 4 6 N/A
6:55 am 06:55 Cloudy with Mist and Fog 68 20 68 20 100 100 N N/A 30.21 1023 4 6 N/A
7:15 am 07:15 Cloudy with Mist and Fog 68 20 68 20 100 100 N N/A 30.22 1023 4 6 N/A
7:35 am 07:35 Cloudy with Mist and Fog 70 21 68 20 94 94 N N/A 30.22 1023 5 8 N/A
7:55 am 07:55 Cloudy with Mist and Fog 68 20 68 20 100 100 N N/A 30.22 1023 4 6 N/A
8:15 am 08:15 Mostly Cloudy with Mist and Fog 68 20 68 20 100 100 N N/A 30.22 1023 4 6 N/A
8:35 am 08:35 Mostly Cloudy with Mist and Fog 70 21 68 20 94 94 N N/A 30.23 1024 5 8 N/A
8:55 am 08:55 Cloudy with Mist and Fog 70 21 68 20 94 94 N N/A 30.23 1024 5 8 N/A
9:15 am 09:15 Cloudy 72 22 68 20 88 88 N N/A 30.23 1024 7 11 N/A
9:35 am 09:35 Cloudy 72 22 68 20 88 88 N N/A 30.23 1024 7 11 N/A
9:55 am 09:55 Cloudy 72 22 68 20 88 88 VRB 3 6 30.23 1024 8 13 N/A
10:15 am 10:15 Cloudy 73 23 68 20 83 83 SSE 6 9 30.22 1024 9 14 N/A
10:35 am 10:35 Cloudy 73 23 66 19 78 78 SSE 7 11 30.21 1023 9 14 N/A
10:55 am 10:55 Cloudy 75 24 68 20 78 78 SSE 7 11 30.21 1023 9 14 N/A
11:15 am 11:15 Cloudy 75 24 68 20 78 78 SE 6 9 30.21 1023 9 14 N/A
11:35 am 11:35 Cloudy 75 24 68 20 78 78 VRB 5 7 30.21 1023 9 14 N/A
11:55 am 11:55 Cloudy 75 24 68 20 78 78 ESE 7 11 30.21 1023 9 14 N/A
12:15 pm 12:15 Mostly Cloudy 77 25 66 19 69 69 SSE 6 9 30.20 1023 9 14 N/A
12:35 pm 12:35 Partly Cloudy 77 25 66 19 69 69 VRB 5 7 30.20 1023 9 14 N/A
12:55 pm 12:55 Mostly Cloudy 79 26 66 19 65 65 E 6 9 30.19 1022 9 14 N/A
1:15 pm 13:15 Mostly Cloudy 79 26 66 19 65 65 SSE 7 11 30.19 1022 10 16 N/A
1:35 pm 13:35 Partly Cloudy 79 26 66 19 65 65 SE 8 13 30.18 1022 10 16 N/A
1:55 pm 13:55 Partly Cloudy 79 26 66 19 65 65 VRB 7 11 30.18 1022 9 14 N/A
2:15 pm 14:15 Partly Cloudy 79 26 66 19 65 65 VRB 7 11 30.17 1022 9 14 N/A
2:35 pm 14:35 Partly Cloudy 79 26 66 19 65 65 VRB 5 7 30.16 1021 9 14 N/A
2:55 pm 14:55 Sunny 79 26 66 19 65 65 VRB 5 7 30.15 1021 9 14 N/A
3:15 pm 15:15 Sunny 81 27 66 19 62 62 SSE 6 9 30.14 1021 10 16 N/A
3:35 pm 15:35 Mostly Sunny 79 26 66 19 65 65 S 6 9 30.14 1021 10 16 N/A
3:55 pm 15:55 Sunny 79 26 66 19 65 65 SSE 5 7 30.14 1021 10 16 N/A
4:15 pm 16:15 Sunny 81 27 66 19 62 62 VRB 3 6 30.12 1020 10 16 N/A
4:35 pm 16:35 Sunny 81 27 66 19 62 62 SE 6 9 30.11 1020 10 16 N/A
4:55 pm 16:55 Mostly Sunny 79 26 66 19 65 65 SSE 6 9 30.12 1020 10 16 N/A
5:15 pm 17:15 Sunny 79 26 66 19 65 65 SSE 3 6 30.11 1020 10 16 N/A
5:35 pm 17:35 Sunny 79 26 66 19 65 65 N N/A 30.11 1020 10 16 N/A
5:55 pm 17:55 Sunny 79 26 68 20 70 70 N N/A 30.10 1019 10 16 N/A
6:15 pm 18:15 Sunny 77 25 68 20 74 74 N N/A 30.10 1019 10 16 N/A
6:35 pm 18:35 Sunny 77 25 68 20 74 74 N N/A 30.10 1019 9 14 N/A
6:55 pm 18:55 Sunny 77 25 68 20 74 74 N N/A 30.10 1019 9 14 N/A
7:15 pm 19:15 Sunny 75 24 68 20 78 78 N N/A 30.10 1019 9 14 N/A
7:35 pm 19:35 Clear 73 23 70 21 89 89 N N/A 30.09 1019 9 14 N/A
7:55 pm 19:55 Clear 73 23 70 21 89 89 N N/A 30.10 1019 9 14 N/A
8:15 pm 20:15 Clear 73 23 70 21 89 89 N N/A 30.10 1019 9 14 N/A
8:35 pm 20:35 Clear 73 23 68 20 83 83 N N/A 30.10 1019 9 14 N/A
8:55 pm 20:55 Clear 72 22 70 21 94 94 N N/A 30.12 1020 8 13 N/A
9:15 pm 21:15 Clear 72 22 70 21 94 94 N N/A 30.12 1020 8 13 N/A
9:35 pm 21:35 Clear 72 22 70 21 94 94 N N/A 30.12 1020 8 13 N/A
9:55 pm 21:55 Mostly Clear 70 21 68 20 94 94 E 3 6 30.11 1020 8 13 N/A
10:15 pm 22:15 Clear 70 21 68 20 94 94 N N/A 30.12 1020 8 13 N/A
10:35 pm 22:35 Clear 70 21 68 20 94 94 N N/A 30.12 1020 8 13 N/A
10:55 pm 22:55 Partly Cloudy 70 21 68 20 94 94 N N/A 30.12 1020 8 13 N/A
11:15 pm 23:15 Mostly Clear 70 21 68 20 94 94 N N/A 30.12 1020 8 13 N/A
11:35 pm 23:35 Mostly Clear 70 21 68 20 94 94 N N/A 30.12 1020 7 11 N/A
11:55 pm 23:55 Mostly Clear with Mist and Fog 68 20 68 20 100 100 N N/A 30.12 1020 5 8 N/A

Powered by AerisWeather